KLM785 EHAM-TNCM

Flight info

Callsign KLM785
Flight time N/A
Altitude 32000
Route BERGI L60 PENIL M144 BAGSO DCT LIMRI/M082F320 DCT 51N020W 49N030W 44N040W/M082F340 34N050W 27N056W/M082F360 22N060W DCT OBIKE/N0474F360 L335 TRNKY
Aircraft MD11/H-SDE1E2E3FGHIJ2J3J4J5M1RWXY/LB1D1

Departure

Time N/A
Airport Amsterdam Airport Schiphol (EHAM)

Arrival

Time 2026-04-30 18:27
Airport Princess Juliana International Airport (TNCM)
Time Latitude Longitude Altitude Speed Heading
2026-04-30 17:57 19.89086 -61.41462 35984 ft 437 kts 220°
2026-04-30 17:58 19.81386 -61.46575 35984 ft 437 kts 220°
2026-04-30 18:00 19.60748 -61.60250 35979 ft 437 kts 220°
2026-04-30 18:01 19.47851 -61.68760 35979 ft 437 kts 220°
2026-04-30 18:02 19.33263 -61.79774 35980 ft 414 kts 241°
2026-04-30 18:04 19.24652 -61.95451 35976 ft 412 kts 241°
2026-04-30 18:06 19.11852 -62.14879 33792 ft 389 kts 242°
2026-04-30 18:07 19.05575 -62.24408 31746 ft 403 kts 239°
2026-04-30 18:08 19.00692 -62.31781 30069 ft 414 kts 237°
2026-04-30 18:09 18.93992 -62.41879 27631 ft 422 kts 237°
2026-04-30 18:10 18.87245 -62.52031 25290 ft 422 kts 236°
2026-04-30 18:11 18.80620 -62.61979 22816 ft 406 kts 236°
2026-04-30 18:11 18.75824 -62.69184 21015 ft 397 kts 236°
2026-04-30 18:12 18.71093 -62.76285 19319 ft 390 kts 236°
2026-04-30 18:13 18.67984 -62.80945 18193 ft 386 kts 236°
2026-04-30 18:13 18.63888 -62.87082 16601 ft 382 kts 236°
2026-04-30 18:14 18.60349 -62.92378 15323 ft 377 kts 235°
2026-04-30 18:15 18.55852 -62.99103 13728 ft 371 kts 235°
2026-04-30 18:15 18.51414 -63.05730 12064 ft 366 kts 235°
2026-04-30 18:16 18.48490 -63.10093 11197 ft 363 kts 235°
2026-04-30 18:16 18.45668 -63.14296 10921 ft 332 kts 235°
2026-04-30 18:17 18.44384 -63.16211 10804 ft 316 kts 235°
2026-04-30 18:17 18.43033 -63.17951 10673 ft 300 kts 223°
2026-04-30 18:17 18.39451 -63.19935 10320 ft 291 kts 202°
2026-04-30 18:18 18.37563 -63.20678 9917 ft 289 kts 201°
2026-04-30 18:18 18.35674 -63.21408 9397 ft 290 kts 201°
2026-04-30 18:18 18.33776 -63.22145 8888 ft 291 kts 201°
2026-04-30 18:18 18.31878 -63.22884 8395 ft 291 kts 201°
2026-04-30 18:19 18.30004 -63.23618 7913 ft 292 kts 201°
2026-04-30 18:19 18.28103 -63.24367 7478 ft 291 kts 201°
2026-04-30 18:19 18.26214 -63.25119 7033 ft 290 kts 201°
2026-04-30 18:19 18.24327 -63.25871 6586 ft 290 kts 201°
2026-04-30 18:20 18.22438 -63.26624 6128 ft 290 kts 200°
2026-04-30 18:20 18.20557 -63.27375 5675 ft 289 kts 200°
2026-04-30 18:20 18.18684 -63.28121 5268 ft 286 kts 200°
2026-04-30 18:20 18.16827 -63.28859 4867 ft 284 kts 200°
2026-04-30 18:21 18.15004 -63.29587 4478 ft 273 kts 199°
2026-04-30 18:21 18.13246 -63.30286 4099 ft 266 kts 199°
2026-04-30 18:21 18.11520 -63.30765 3719 ft 246 kts 181°
2026-04-30 18:21 18.09923 -63.30679 3391 ft 222 kts 172°
2026-04-30 18:22 18.08452 -63.30471 3090 ft 205 kts 170°
2026-04-30 18:22 18.05828 -63.30068 2633 ft 178 kts 170°
2026-04-30 18:22 18.04612 -63.29816 2623 ft 178 kts 161°
2026-04-30 18:23 18.03512 -63.29251 2471 ft 175 kts 142°
2026-04-30 18:23 18.02689 -63.28347 2285 ft 173 kts 123°
2026-04-30 18:23 18.02208 -63.27173 2106 ft 176 kts 103°
2026-04-30 18:23 18.02160 -63.25912 1834 ft 174 kts 85°
2026-04-30 18:24 18.02466 -63.23425 1718 ft 171 kts 84°
2026-04-30 18:24 18.02626 -63.22184 1733 ft 172 kts 83°
2026-04-30 18:24 18.02793 -63.20936 1732 ft 172 kts 83°
2026-04-30 18:25 18.02961 -63.19702 1730 ft 165 kts 83°
2026-04-30 18:25 18.03265 -63.17460 1676 ft 155 kts 86°
2026-04-30 18:25 18.03347 -63.16331 1332 ft 154 kts 86°
2026-04-30 18:26 18.03652 -63.14124 514 ft 152 kts 84°
2026-04-30 18:26 18.03795 -63.13022 314 ft 153 kts 85°
2026-04-30 18:26 18.03950 -63.11927 83 ft 152 kts 85°
2026-04-30 18:27 18.04176 -63.10312 35 ft 56 kts 81°
2026-04-30 18:27 18.04213 -63.10043 33 ft 23 kts 81°
2026-04-30 18:28 18.04283 -63.09877 34 ft 5 kts 91°
2026-04-30 18:28 18.04266 -63.09861 34 ft 3 kts 160°
2026-04-30 18:28 18.04230 -63.09937 34 ft 12 kts 261°
2026-04-30 18:29 18.04213 -63.10048 34 ft 19 kts 261°
2026-04-30 18:29 18.04139 -63.10563 35 ft 23 kts 261°
2026-04-30 18:30 18.04102 -63.10828 34 ft 20 kts 261°
2026-04-30 18:30 18.04057 -63.11138 35 ft 17 kts 261°
2026-04-30 18:31 18.04042 -63.11234 35 ft 8 kts 261°
2026-04-30 18:31 18.04116 -63.11296 35 ft 9 kts 351°
2026-04-30 18:32 18.04216 -63.11318 36 ft 9 kts 329°
2026-04-30 18:32 18.04255 -63.11349 36 ft 6 kts 334°
2026-04-30 18:32 18.04312 -63.11361 36 ft 2 kts 351°
2026-04-30 18:33 18.04317 -63.11362 36 ft 0 kts 351°